Hourly Data Report for October 06, 2019

All times are specified in Local Standard Time (LST). Add 1 hour to adjust for Daylight Saving Time where and when it is observed.

SEPT-ILES
QUEBEC
Current Station Operator: ECCC - MSC

50°13'00.000" N
66°15'00.000" W
52.60 m
7047914
71279
XZV

Download Data

Hourly Data (October 2019)
Hourly Data Report for October 6, 2019
TIME Temp Definition
°C
Dew Point Definition
°C
Rel Hum Definition
%
Wind Dir Definition
10's deg

Wind Spd Definition
km/h
Visibility Definition
km
Stn Press Definition
kPa
Hmdx Definition


Wind Chill Definition


Weather Definition


00:00 -1.1 -3.2 86 30 6   101.69   -3 LegendNANA
01:00 -1.0 -2.4 90 32 6   101.71   -3 LegendNANA
02:00 -0.3 -2.2 87 34 8   101.66   -3 LegendNANA
03:00 -2.2 -3.4 91 34 5   101.70   -4 LegendNANA
04:00 -3.0 -4.5 90 36 4   101.70   -5 LegendNANA
05:00 -0.3 -2.4 86 1 7   101.69   -3 LegendNANA
06:00 -2.0 -3.8 88 1 4   101.72   -3 LegendNANA
07:00 2.6 -1.3 76 4 3   101.74     LegendNANA
08:00 5.0 -1.0 65 13 5   101.74     LegendNANA
09:00 6.7 0.0 62 16 4   101.69     LegendNANA
10:00 5.9 0.7 69 15 7   101.62     LegendNANA
11:00 6.0 1.8 74 15 9   101.55     LegendNANA
12:00 6.4 3.3 81 14 10   101.46     LegendNANA
13:00 6.9 4.3 83 16 8   101.42     LegendNANA
14:00 6.4 4.6 88 15 6   101.33     LegendNANA
15:00 6.8 4.3 84 13 10   101.25     LegendNANA
16:00 6.6 3.6 81 12 5   101.20     LegendNANA
17:00 6.4 4.8 89 12 8   101.16     LegendNANA
18:00 6.5 4.3 86 10 3   101.11     LegendNANA
19:00 6.5 3.9 84 9 4   101.01     LegendNANA
20:00 6.5 4.1 84 9 4   100.95     LegendNANA
21:00 6.5 4.2 85 9 4   100.91     LegendNANA
22:00 6.3 4.9 91 7 9   100.82     LegendNANA
23:00 6.0 4.6 90 6 7   100.74     LegendNANA

Notes on Data Quality.

Legend

  • E = Estimated
  • M = Missing
  • NA = Not Available
Date modified: